www.pogodaiklimat.ru

Погода и климат >> Архив погоды >> Канада >> Eureka


ПОГОДА в Eureka

  • Прогноз погоды в Eureka
  • Монитор погоды в Eureka
  • Климат города

АРХИВ ПОГОДЫ в Eureka

Время (UTC), дата Ветер
(напр.,м/с)
 
Видим.   Явления Облачность Т
(С)
Тd
(С)
f
(%)
Тe
(С)
Тes
(С)
Комфортность P
(гПа)
Po
(гПа)
Тmin
(С)
Tmax
(С)
R
(мм)
R24
(мм)
S
(см)
18 9.08 З 2 24 км 3/1 300 м
[Cu Sc Ac trans]
+5.2 -1.0 64 +3 +6 1009.2 1007.9 +5.3
21 9.08 ЮЗ 2 24 км 1/1 600 м
[]
+5.9 -1.5 59 +4 +7 1009.0 1007.7
00 10.08 ЮВ 3 24 км 3/3 600 м
[Sc Ci fib]
+6.8 -0.5 60 +4 +5 1008.5 1007.2 +1.6 +7.2
03 10.08 Ю 6 24 км 5/5 1500 м
[]
+4.5 -0.6 69 -0 -0 1008.1 1006.8
06 10.08 Ю 3 24 км 5/1 600 м
[Sc Ac As Ci fib]
+2.1 -0.2 85 -2 -2 1007.4 1006.1 5
09 10.08 ЮВ 8 24 км 9/9 600 м
[]
+2.1 -1.3 78 -5 -5 1007.1 1005.8
12 10.08 ЮВ 10 24 км 10/1 600 м
[Cu Sc Ac As Ci fib]
+2.1 -1.5 77 -5 -5 1006.6 1005.3
15 10.08 Ю 9 24 км 10/10 300 м
[]
+2.9 -1.2 74 -4 -4 1005.7 1004.4
18 10.08 Ю 13 24 км 10/1 300 м
[Cu Sc As op Ci sp]
+3.5 -1.4 70 -4 -4 1004.6 1003.3 +3.9
21 10.08 ЮВ 8 24 км 10/10 600 м
[]
+3.1 -1.2 73 -3 -3 1004.7 1003.4
00 11.08 Ю 10 6000 м слабый дождь 10/10 300 м
[Cu Sc]
+2.6 -0.8 78 -5 -5 1003.7 1002.4 +1.7 +3.9 0.0
03 11.08 ЮВ 9 2400 м 10/10 100 м
[]
+0.6 -0.1 95 -7 -7 1003.2 1001.9
06 11.08 ЮВ 8 24 км {снег} 9/9 300 м
[Cu Sc Ac As]
+1.8 -0.2 87 -5 -5 1002.3 1001.0 1 192
09 11.08 ЮВ 7 24 км 9/9 300 м
[]
+2.4 +0.3 86 -4 -4 1002.5 1001.2
12 11.08 ЮВ 4 24 км 6/4 300 м
[Cu Sc Ac As]
+1.9 +0.5 90 -3 -3 1002.8 1001.5
15 11.08 Ю 5 24 км 10/10 300 м
[]
+2.8 +0.7 86 -3 -3 1003.3 1002.0
18 11.08 Ю 8 24 км 8/4 300 м
[Cu Sc Ac As Ci fib]
+3.2 +0.8 84 -3 -3 1004.2 1002.9 +3.7
21 11.08 Ю 6 24 км 9/9 600 м
[]
+3.8 +0.9 81 -2 -2 1005.3 1004.0
00 12.08 Ю 5 24 км 9/1 600 м
[Sc Ac As Ci fib]
+2.2 -0.9 80 -3 -3 1007.4 1006.0 +1.7 +4.5
03 12.08 Ю 5 24 км 1/1 600 м
[]
+1.1 -1.4 83 -4 -4 1007.9 1006.5
06 12.08 ЮВ 6 24 км 9/1 300 м
[Cu hum Ac As Ci fib]
+0.6 -2.2 81 -6 -6 1008.7 1007.3 7
09 12.08 ЮВ 7 24 км 10/10 300 м
[]
0.0 -2.3 84 -7 -7 1009.1 1007.7
12 12.08 ЮВ 8 24 км 9/1 300 м
[Cu Sc Ac As]
+1.0 -1.9 81 -6 -6 1008.4 1007.0
15 12.08 ЮВ 8 24 км 10/10 1000 м
[]
+1.8 -1.5 79 -5 -5 1006.8 1005.4
18 12.08 ЮВ 10 4000 м слабый снег {ливн. осадки} 10/10 600 м
[Sc]
+1.4 -1.0 84 -6 -6 1005.0 1003.6 +2.0 0.6 <0.5
21 12.08 ЮВ 11 24 км 9/9 300 м
[]
+4.6 +2.0 83 -2 -2 1003.1 1001.8
00 13.08 Ю 9 24 км {снег} 10/10 300 м
[Sc]
+5.3 +3.3 87 -1 -1 1001.9 1000.6 -0.1 +5.5 0.2
03 13.08 ЮВ 9 24 км 9/9 300 м
[]
+5.6 +3.6 87 -0 -0 1000.8 999.5
06 13.08 Ю 10 24 км 9/1 200 м
[Cu Sc Ac As Ci fib]
+5.4 +3.3 86 -1 -1 1000.4 999.1 2
09 13.08 Ю 4 24 км 5/5 100 м
[]
+4.9 +3.4 90 +1 +1 1000.9 999.6
12 13.08 З 4 24 км 9/8 100 м
[Cu Sc Ac As Ci fib]
+1.6 +0.9 95 -3 -3 1001.7 1000.4
15 13.08 С 9 24 км 3/3 300 м
[]
+1.8 -2.9 71 -5 -5 1002.2 1000.9
18 13.08 С 6 24 км ясно +3.2 -2.4 67 -2 -0 1003.1 1001.8 +5.7
21 13.08 З 4 24 км 1/1 1000 м
[]
+2.1 -3.9 64 -2 -0 1003.1 1001.8
00 14.08 З 2 24 км 3/1 600 м
[Sc Ac As Ci fib]
+3.1 -2.3 68 0 +1 1001.9 1000.6 +1.2 +3.4
03 14.08 СЗ 2 24 км 1/1 600 м
[]
+2.7 -6.3 51 +1 +1 1000.3 999.0
06 14.08 З 3 24 км 6/1 600 м
[Sc Ac As]
+0.1 -6.0 64 -4 -4 1001.0 999.7 81
09 14.08 З 2 24 км ясно +0.1 -7.6 56 -3 -3 1002.2 1000.9
12 14.08 С 8 24 км 9/9 300 м
[Cu Sc]
-0.5 -6.8 62 -8 -8 1004.7 1003.4
15 14.08 С 10 24 км 4/4 600 м
[]
-0.5 -5.8 67 -8 -8 1007.1 1005.7
18 14.08 С 10 24 км 6/6 300 м
[Sc]
-0.8 -6.4 66 -9 -9 1009.8 1008.4 +0.8
21 14.08 С 8 24 км 8/8 600 м
[]
-1.1 -6.0 69 -8 -8 1012.1 1010.7
00 15.08 З 2 24 км 9/6 600 м
[Sc Ac As]
-0.7 -5.5 70 -3 -3 1013.6 1012.2 -1.4 +0.2
03 15.08 ЮВ 3 24 км 9/9 1500 м
[]
-0.2 -5.2 69 -4 -4 1013.8 1012.4
06 15.08 ЮВ 5 24 км 9/4 1500 м
[Sc As op Ci fib]
-0.2 -5.4 68 -6 -6 1013.5 1012.1 201
09 15.08 ЮВ 5 24 км 10/0 2000 м
[]
+0.1 -4.7 70 -5 -5 1013.5 1012.1
12 15.08 ЮВ 5 24 км 10/9 1000 м
[Sc Ac As]
+1.2 -3.5 71 -4 -4 1012.4 1011.0
15 15.08 Ю 6 24 км 10/10 600 м
[]
+1.5 -2.7 74 -5 -5 1010.9 1009.5
18 15.08 ЮЗ 2 4800 м слабый снег 10/10 300 м
[Sc]
+1.4 -0.2 89 -1 -1 1010.6 1009.2 +1.8 0.6
21 15.08 С 1 16 км 10/10 300 м
[]
+1.3 -0.2 90 +1 +1 1011.4 1010.0
00 16.08 С 7 16 км {снег} 10/9 600 м
[Sc Ac As]
+0.4 -2.8 79 -6 -6 1012.1 1010.7 -0.2 +1.8 0.4
03 16.08 С 5 24 км 10/10 1000 м
[]
-0.2 -3.4 79 -6 -6 1012.6 1011.2
06 16.08 СЗ 5 24 км 10/10 300 м
[Cu Sc]
-0.3 -3.7 78 -6 -6 1013.6 1012.2 0
09 16.08 С 4 24 км 10/10 300 м
[]
-0.4 -3.3 81 -6 -6 1014.5 1013.1
12 16.08 С 6 24 км 9/9 600 м
[Sc]
-0.1 -3.7 77 -6 -6 1015.3 1013.9
15 16.08 С 7 24 км 4/4 300 м
[]
+0.2 -4.0 73 -6 -6 1016.1 1014.7

 

Местоположение метеостанции Eureka (Канада): широта 79.98 долгота -85.93 высота над уровнем моря 10 м.

В архиве по умолчанию представлена погода в Eureka за последнюю неделю. Архивные данные за месяц целиком и за предыдущие месяцы, начиная с января 2011 года, Вы можете получить, выбрав интересующий диапазон дат из раскрывающегося списка и нажав кнопку "Ввод!".

Внимание! Время в таблицах - всемирное. Для получения местного времени необходимо прибавить поправку, которая в Eureka равна -6 ч.

Смотрите также архив погоды в соседних городах и на ближайших метеорологических станциях:

Погода в Eureka Climate (Канада) (1 км)
Погода в Chris Hadfield (Канада) (343 км)
Погода в Isachsen (aut) (Канада) (382 км)
Погода в Mittarfik Qaanaaq (Гренландия) (452 км)
Погода в Kitsissut (Гренландия) (471 км)
Погода в Alert Climate (Канада) (483 км)
Погода в Resolute Cs (Канада) (623 км)
Погода в Resolute Airport (Канада) (623 км)
Погода в Arctic Bay (Канада) (777 км)
Погода в Pond Inlet Airport (Канада) (834 км)

Пояснения к столбцам:

Ветер - указаны скорость ветра в м/с - средняя за 10 мин, порывы в срок и между сроками (в фигурных скобках) и направление, откуда дует ветер: С - северный, СВ - северо-восточный, В - восточный, ЮВ - юго-восточный, Ю - южный, ЮЗ - юго-западный, З - западный, СЗ - северо-западный.
Видимость - горизонтальная дальность видимости в метрах или километрах. При видимости от 1 до 10 км при отсутствии осадков обычно наблюдается дымка, при ухудшении видимости до 1 км и менее - туман. В сухую погоду видимость может ухудшаться дымом, пылью или мглою.
Явления - указаны атмосферные явления, наблюдавшиеся в срок или в последний час перед сроком; фигурными скобками обозначены явления, наблюдавшиеся между сроками (за 1-3 часа до срока); квадратными скобками обозначены град или гололедные отложения с указанием их диаметра в мм.
Облачность - указаны через наклонную черту общая и нижняя облачность в баллах и высота нижней границы облаков в метрах; квадратными скобками обозначены формы облаков: Ci - перистые, Cs - перисто-слоистые, Cc - перисто-кучевые, Ac - высококучевые, As - высокослоистые, Sc - слоисто-кучевые, Ns - слоисто-дождевые, Cu - кучевые, Cb - кучево-дождевые. Подробнее классификацию облаков см. в Атласе облаков (PDF).
T - Температура воздуха - температура, измеренная на высоте 2 м над землей.
Td - Температура точки росы - температура, при понижении до которой содержащийся в воздухе водяной пар достигнет насыщения.
f - Относительная влажность воздуха - влажноcть воздуха, измеренная на высоте 2 м над землей.
Te - Эффективная температура - температура, которую ощущает одетый по сезону человек в тени. Характеристика душности погоды. При расчете учитывается влияние влажности воздуха и скорости ветра на теплоощущения человека.
Tes - Эффективная температура на солнце - температура, которую ощущает человек, с поправкой на солнечный нагрев. Характеристика знойности погоды. Зависит от высоты солнца над горизонтом, облачности и скорости ветра. Ночью, в пасмурную погоду, а также при ветре 12 м/с и более поправка равна нулю.
P - Атмосферное давление - приведенное к уровню моря атмосферное давление.
Po - Атмосферное давление - измеренное на уровне метеостанции атмосферное давление.
Tmin - Минимальная температура - минимум температуры воздуха на высоте 2 м над землей.
Tmax - Максимальная температура - максимум температуры воздуха на высоте 2 м над землей.
R - Количество осадков - Количество выпавших осадков за период времени, мм. При наведении курсора мыши на число - период времени, за который выпало указанное количество осадков.
R24 - Количество осадков - Количество выпавших осадков за 24 часа, мм.
S - Снежный покров - Высота снежного покрова, см. При наведении курсора мыши на число - состояние снежного покрова и степень покрытия местности в баллах.